Regional Weather Roundup
Issued by NWS

Home | Current Version | Previous Version | Graphics & Text | Print | Product List | Glossary On
Versions: 1 2 3 4 5 6 7 8 9 10 11 12 13 14 15 16 17 18 19 20 21 22 23 24 25 26 27 28 29 30 31 32 33 34 35 36 37 38 39 40 41 42 43 44 45 46 47 48 49 50
000
ASUS43 KIND 280300
RWRIN

WEATHER ROUNDUP FOR INDIANA
NATIONAL WEATHER SERVICE INDIANAPOLIS IN
1100 PM EDT THU JUL 27 2017

NOTE: "FAIR" INDICATES FEW OR NO CLOUDS BELOW 12,000 FEET WITH NO
SIGNIFICANT WEATHER AND/OR OBSTRUCTIONS TO VISIBILITY.

* - STATION DOES NOT REPORT WEATHER SUCH AS PRECIPITATION OR FOG.

+ - STATION NOT QUALITY CONTROLLED BY THE NATIONAL WEATHER SERVICE.
    USE DATA WITH CAUTION...ESPECIALLY DEWPOINT AND RELATIVE
    HUMIDITY OBSERVATIONS.

INZ001>003-010>013-019-020-280400-
NORTHWEST INDIANA

CITY           SKY/WX    TMP DP  RH WIND       PRES   REMARKS
GARY /AIRPORT/ PTCLDY    72  64  78 N12       29.93S
MICHIGAN CITY+ MOCLDY    70  68  94 N6        29.92F
MONTICELLO +   CLOUDY    72  69  90 N7        29.89S
RENSSELAER +   CLEAR     70  64  83 N7        29.91S

$$

LMZ046-743>745-280400-
SOUTHERN LAKE MICHIGAN

STATION/POSITION TIME  TEMP    WIND        PRES    WAVE
                       AIR SEA DIR/SP/G            HT
                 (UTC) (F)     (DEG/KT/KT) (MB)    (FT)
BURNS HARBOR     0240   73      30/ 12/ 15 1013.9R
MICHIGAN CITY    0230   73      20/ 15/ 17   N/A
5NW MICH CITY    0250   74 74   30/ 14/ 19   N/A     6

$$

INZ004-005-014>016-021>024-280400-
NORTH CENTRAL INDIANA

CITY           SKY/WX    TMP DP  RH WIND       PRES   REMARKS
GOSHEN         MOCLDY    77  66  68 NE8       29.90R
SOUTH BEND     PTCLDY    71  66  84 N7        29.92R
WARSAW +       PTCLDY    72  70  94 N3        29.89S

$$

INZ006>009-017-018-025>027-280400-
NORTHEAST INDIANA

CITY           SKY/WX    TMP DP  RH WIND       PRES   REMARKS
AUBURN +       PTCLDY    72  70  94 CALM      29.91S FOG
FORT WAYNE     MOCLDY    74  69  85 E6        29.90S
KENDALLVILLE + CLOUDY    76  67  75 NE6       29.91F

$$

INZ028-029-035-036-043>045-051>053-280400-
WEST CENTRAL INDIANA

CITY           SKY/WX    TMP DP  RH WIND       PRES   REMARKS
LAFAYETTE      CLOUDY    73  69  87 N8        29.88S
TERRE HAUTE    CLOUDY    76  73  91 CALM      29.87S

$$

INZ030>032-037>040-046>048-054>057-064-065-280400-
CENTRAL INDIANA

CITY           SKY/WX    TMP DP  RH WIND       PRES   REMARKS
FRANKFORT +    MOCLDY    76  73  92 N5        29.91S
GREENWOOD *+   CLOUDY   N/A N/A N/A CALM      29.88F
INDIANAPOLIS   MOCLDY    74  73  97 S3        29.87F
-EAGLE CREEK   LGT RAIN  75  72  90 CALM      29.87S
KOKOMO +       MOCLDY    75  72  90 N7        29.90R
MT COMFORT *+  CLOUDY    73  72  94 CALM      29.89S
SHELBYVILLE    CLOUDY    75  72  90 CALM      29.87S

$$

INZ033-034-041-042-049-050-058-059-280400-
EAST CENTRAL INDIANA

CITY           SKY/WX    TMP DP  RH WIND       PRES   REMARKS
MUNCIE         CLOUDY    75  72  90 CALM      29.89S
RICHMOND +     LGT RAIN  72  72 100 CALM      29.91S

$$

INZ060-061-067>069-081>083-085>088-280400-
SOUTHWEST INDIANA

CITY           SKY/WX    TMP DP  RH WIND       PRES   REMARKS
EVANSVILLE     CLOUDY    78  73  84 SW10      29.86S
HUNTINGBURG *+ MOCLDY    77  75  93 SE5       29.86S

$$

INZ062-063-066-070>080-084-089>092-280400-
SOUTH CENTRAL AND SOUTHEAST INDIANA

CITY           SKY/WX    TMP DP  RH WIND       PRES   REMARKS
BLOOMINGTON    PTCLDY    76  72  87 CALM      29.87F
MADISON *+     CLOUDY    73  72  94 CALM      29.90S
SEYMOUR +      CLOUDY    79  73  83 SW3       29.88R

$$





USA.gov is the U.S. government's official web portal to all federal, state and local government web resources and services.